Angoon, AK

8:26 AM AKDT on October 17, 2019 (GMT -0800)
Angoon

Weather History for PAGN - May, 2019

Change the Weather History Date:

Tuesday, May 14, 2019

  Actual Average (PASI) Record (PASI)
Temperature  
Mean Temperature 50 °F -  
Max Temperature 55 °F 53 °F 78 °F (2016)
Min Temperature 45 °F 41 °F 34 °F (1965)
Degree Days  
Heating Degree Days 15    
Moisture  
Dew Point 42 °F    
Average Humidity 77    
Maximum Humidity 93    
Minimum Humidity 55    
Precipitation  
Precipitation 0.01 in - - ()
Sea Level Pressure  
Sea Level Pressure 29.80 in    
Wind  
Wind Speed 1 mph (ENE)    
Max Wind Speed 7 mph    
Max Gust Speed -    
Visibility 10 miles    
Events Rain    
Averages and records for this station are not official NWS values.
T = Trace of Precipitation, MM = Missing Value Source: NWS Daily Summary

Daily Weather History Graph

Daily Weather History Graph

Search for Another Location

Airport or City:

Astronomy

May. 14, 2019 Rise Set
Actual Time 4:39 AM AKDT 9:11 PM AKDT
Civil Twilight 3:45 AM AKDT 10:05 PM AKDT
Nautical Twilight 2:16 AM AKDT 11:37 PM AKDT
Astronomical Twilight Sun does not rise Sun does not rise
Moon 3:25 PM AKDT (5/14) 3:58 AM AKDT (5/14)
Length of Visible Light 18h 19m
Length of Day
16h 32m
Waxing Gibbous, 80% of the Moon is Illuminated
May 14
Waxing Gibbous
May 18
Full
May 26
Last Quarter
Jun 3
New
Jun 9
First Quarter

Hourly Weather History & Observations

Time (AKDT) Temp. Dew Point Humidity Pressure Visibility Wind Dir Wind Speed Gust Speed Precip Events Conditions
12:56 AM 46.0 °F 39.9 °F 79% 29.83 in 10.0 mi Calm Calm - N/A   Scattered Clouds
1:56 AM 45.0 °F 41.0 °F 86% 29.83 in 10.0 mi Calm Calm - N/A   Mostly Cloudy
2:56 AM 45.0 °F 41.0 °F 86% 29.83 in 10.0 mi Calm Calm - N/A   Overcast
3:56 AM 45.0 °F 41.0 °F 86% 29.82 in 10.0 mi Calm Calm - N/A   Overcast
4:56 AM 45.0 °F 42.1 °F 90% 29.82 in 10.0 mi Calm Calm - N/A   Overcast
5:56 AM 45.0 °F 42.1 °F 90% 29.81 in 10.0 mi Calm Calm - N/A   Overcast
6:56 AM 46.0 °F 42.1 °F 86% 29.81 in 10.0 mi Calm Calm - N/A   Overcast
7:56 AM 46.9 °F 41.0 °F 80% 29.81 in 10.0 mi Calm Calm - N/A   Mostly Cloudy
8:56 AM 48.9 °F 41.0 °F 74% 29.81 in 10.0 mi Calm Calm - N/A   Overcast
9:56 AM 50.0 °F 41.0 °F 71% 29.80 in 10.0 mi Calm Calm - N/A   Overcast
10:56 AM 50.0 °F 42.1 °F 74% 29.79 in 10.0 mi Calm Calm - N/A   Overcast
11:56 AM 52.0 °F 37.9 °F 59% 29.78 in 10.0 mi Variable 3.5 mph - N/A   Overcast
12:56 PM 53.1 °F 39.0 °F 59% 29.78 in 10.0 mi North 3.5 mph - N/A   Overcast
2:56 PM 55.0 °F 39.0 °F 55% 29.77 in 10.0 mi Variable 3.5 mph - N/A   Overcast
3:56 PM 54.0 °F 39.9 °F 59% 29.78 in 10.0 mi SSE 6.9 mph - N/A   Overcast
4:56 PM 52.0 °F 42.1 °F 69% 29.78 in 10.0 mi Variable 3.5 mph - N/A   Overcast
5:56 PM 52.0 °F 42.1 °F 69% 29.78 in 10.0 mi Calm Calm - N/A   Overcast
6:56 PM 53.1 °F 42.1 °F 66% 29.78 in 10.0 mi Calm Calm - 0.00 in   Overcast
7:56 PM 52.0 °F 42.1 °F 69% 29.78 in 10.0 mi Calm Calm - 0.00 in Rain Light Rain
8:56 PM 50.0 °F 45.0 °F 83% 29.79 in 10.0 mi Calm Calm - 0.00 in   Overcast
9:56 PM 48.9 °F 45.0 °F 86% 29.80 in 10.0 mi Calm Calm - 0.00 in Rain Light Rain
10:56 PM 48.0 °F 46.0 °F 93% 29.80 in 10.0 mi Calm Calm - 0.00 in Rain Light Rain
11:56 PM 48.0 °F 46.0 °F 93% 29.81 in 10.0 mi Calm Calm - 0.01 in Rain Light Rain